Location: St. Louis
(38.6270°N, 90.1994°W)
Time: 05:09:43
(UTC-06:00)

Explorer 7 - Pass Details

Date: 13 December 2021
Orbit: 483 x 674 km, 50.3° (Epoch: 19 January)

Event Time Altitude Azimuth Distance (km) Brightness Sun altitude
Exits shadow 04:40:49 13° 27° (NNE) 1,673 9.4 -28.3°
Drops below altitude 10° 04:41:39 10° 37° (NE) 1,863 9.8 -28.2°
Sets 04:44:28 0° 57° (ENE) 2,717 11.0 -27.6°
